Wind_Speed
14 14 14 12 11 11 10 9 9 8 8 8 7 7 8 7 7 6 6 6 7 7 7 7 8 8 7 7 7 7 8 8 8 8 9 8 9 8 8 9 9 9 9 9
15 14 13 13 13 12 11 10 10 9 9 9 8 8 8 8 7 7 7 7 7 7 8 8 9 8 8 8 8 8 9 9 10 10 10 10 10 9 10 10 9 9 9 10
14 13 14 14 13 13 12 12 11 10 9 10 9 9 9 9 8 8 7 7 8 8 8 9 9 9 9 9 9 9 10 11 11 12 11 11 11 11 10 10 10 10 11 11
14 14 15 15 14 14 13 12 12 11 11 11 11 11 10 10 9 9 8 8 8 9 9 9 10 10 10 10 10 11 11 12 12 12 12 12 12 12 11 11 12 11 12 12
14 14 15 15 14 14 13 12 12 12 12 13 13 13 11 11 9 9 9 9 9 9 9 10 10 11 11 11 11 12 12 13 12 13 13 13 13 13 13 13 13 13 13 13
14 14 15 15 14 15 14 13 14 14 14 14 13 13 11 11 9 9 8 9 10 10 10 11 11 12 12 12 12 13 13 13 14 14 14 14 14 14 14 15 15 14 14 14
14 14 15 15 15 15 15 15 16 16 16 15 14 14 12 10 10 10 10 10 11 12 12 12 12 13 13 13 14 14 14 15 15 15 15 15 15 15 15 16 16 15 15 15
15 15 15 15 15 15 15 16 16 17 16 14 15 15 12 11 11 11 12 12 12 13 13 13 13 14 14 14 15 15 16 16 16 16 16 16 16 16 17 17 16 16 16 16
15 15 15 15 15 15 15 16 16 17 17 16 16 15 13 12 13 12 12 13 13 14 14 14 15 15 15 16 16 16 17 17 17 17 17 17 18 18 18 18 17 17 17 17
16 15 15 15 16 16 16 16 17 17 17 17 17 15 14 13 13 12 13 14 14 15 15 15 15 16 16 16 17 17 18 18 18 18 18 18 19 19 19 19 19 19 19 18
17 17 16 16 16 17 17 17 17 17 17 17 17 16 15 15 14 14 15 15 15 15 16 16 17 17 17 17 18 18 18 19 19 19 19 19 19 20 19 19 20 20 20 20
18 18 17 17 17 17 17 17 18 18 18 18 18 16 15 16 16 16 15 15 15 15 15 16 17 18 18 18 19 19 19 19 19 20 20 20 20 20 20 20 21 21 21 21
18 19 18 18 19 18 18 18 19 20 20 20 19 17 16 17 18 18 16 15 15 15 16 17 18 18 19 19 19 20 19 19 20 20 21 21 21 21 21 21 22 22 21 21
19 19 19 18 18 19 18 18 20 20 21 21 19 17 17 18 18 18 18 16 16 16 17 18 18 18 18 19 19 19 19 19 20 20 21 21 21 22 23 23 22 22 22 22
19 19 19 19 18 19 19 19 20 21 21 21 19 18 17 18 19 19 19 18 17 17 18 18 18 18 18 18 18 19 19 20 20 20 21 21 22 23 23 23 23 22 22 22
19 19 19 19 19 20 20 20 20 21 22 21 20 19 18 18 19 19 19 19 18 18 18 18 18 18 18 19 19 19 20 20 21 22 21 22 22 22 23 22 23 23 23 22
19 18 18 18 18 19 19 19 21 22 21 21 20 19 19 19 19 19 19 19 19 18 17 18 18 19 19 19 20 20 20 21 22 22 22 22 22 22 22 22 22 22 23 23
18 19 20 20 19 19 18 19 20 21 21 20 20 20 20 20 20 19 19 19 19 19 18 18 19 19 20 20 20 21 21 21 21 22 22 22 22 22 22 23 23 23 23 23
18 20 20 20 20 18 17 18 20 21 21 21 22 22 21 20 20 20 20 20 20 19 19 19 19 19 20 21 21 21 21 21 21 21 22 22 22 23 23 23 23 24 24 24
18 19 20 20 21 20 18 18 19 21 21 21 22 23 22 22 21 20 20 20 20 20 20 20 20 20 21 22 22 22 22 21 21 22 22 22 23 23 23 23 24 24 25 25
19 20 21 21 21 20 19 20 21 22 21 21 22 22 23 23 22 21 21 20 20 20 21 21 22 22 22 23 23 22 22 22 22 22 23 23 23 24 24 24 24 25 25 25
20 20 22 22 22 21 21 21 22 22 22 23 23 23 23 23 23 22 22 22 22 22 22 23 23 23 23 24 23 23 22 22 22 22 23 23 24 24 25 26 26 26 26 26
22 22 23 23 22 22 22 23 23 24 24 24 24 25 25 24 24 23 23 24 25 24 24 24 24 25 25 25 24 24 24 24 24 24 24 25 25 25 26 26 26 26 27 26
22 23 24 24 23 24 23 24 24 24 25 25 26 26 26 26 25 25 25 25 26 26 26 26 26 26 26 27 27 26 26 26 26 26 26 26 26 26 26 27 27 26 26 27
22 23 24 25 25 26 25 25 25 25 25 25 26 26 26 26 26 27 27 27 27 27 28 28 28 28 28 28 28 28 28 28 28 27 27 27 27 27 27 28 28 28 28 28
21 22 23 24 25 26 26 26 26 27 27 27 27 27 27 26 27 28 28 28 29 29 29 29 29 29 29 29 29 30 29 29 28 28 28 28 28 28 28 28 29 29 29 29
Wind_Direction
223 226 225 225 228 229 229 234 236 239 247 247 242 242 244 249 255 262 272 275 271 273 275 276 274 273 272 273 278 283 289 290 289 291 291 285 284 280 281 280 283 283 281 276
225 225 224 226 229 233 235 238 239 240 243 245 248 250 248 248 253 261 270 277 279 277 278 277 275 269 268 269 274 282 286 288 287 287 285 283 281 280 283 285 286 284 284 282
226 224 224 226 231 234 237 243 244 246 246 246 250 247 247 250 254 258 265 274 280 280 278 274 272 268 270 271 274 280 284 285 285 284 281 280 277 276 282 285 286 283 282 284
225 223 225 227 231 234 237 241 245 245 248 248 249 251 251 255 255 259 265 271 277 280 280 282 275 271 271 274 276 280 283 283 283 282 278 276 275 275 277 279 282 282 280 281
225 226 228 230 232 236 238 242 244 248 251 251 251 254 251 255 256 262 267 272 275 279 279 281 281 280 277 277 279 281 283 282 281 280 276 274 273 274 276 276 277 278 278 278
227 229 230 230 232 237 240 243 244 249 251 251 253 258 258 258 257 262 267 271 273 275 277 278 279 280 281 279 279 279 280 281 281 281 277 274 272 272 273 274 275 275 276 276
227 228 230 231 233 232 236 241 246 247 248 251 255 260 262 260 261 268 272 275 278 278 278 279 280 281 282 282 281 280 280 280 281 281 277 274 274 273 273 273 275 275 275 276
229 230 230 231 235 235 238 242 246 250 252 255 257 258 260 262 263 272 275 275 277 277 278 278 280 279 281 282 281 280 279 279 278 276 273 273 274 274 273 273 274 274 274 275
234 234 235 232 233 235 238 240 246 252 254 257 256 256 260 260 263 271 274 275 276 277 278 278 278 279 280 281 282 280 279 278 276 274 273 273 274 275 275 274 273 274 274 274
236 237 238 236 235 234 239 243 246 251 255 257 260 260 264 267 269 270 273 275 278 278 277 278 277 277 278 279 280 279 277 276 275 275 275 275 275 276 276 274 276 277 276 276
242 240 238 240 240 238 237 240 245 251 257 259 262 263 267 269 270 272 273 276 279 278 277 277 277 276 277 278 278 277 277 276 276 276 277 278 277 278 277 277 277 278 277 277
243 243 242 244 244 240 239 242 245 248 253 258 262 266 266 268 269 272 274 276 279 279 279 278 277 276 278 277 278 278 277 276 275 275 276 279 279 277 276 276 277 278 278 277
244 245 245 245 244 244 243 240 243 247 252 256 259 263 264 267 270 273 275 277 279 279 278 278 278 277 278 278 279 277 275 276 276 277 277 277 278 277 276 277 277 278 277 276
243 245 248 250 247 246 244 243 245 249 253 257 259 262 265 268 272 274 276 277 276 278 278 278 279 279 279 279 278 276 276 277 278 279 279 279 277 277 276 276 277 276 276 275
246 247 249 249 249 246 247 246 247 251 255 257 257 261 267 271 276 277 275 275 277 278 280 281 282 282 281 279 278 277 278 279 279 279 279 278 277 277 275 274 275 274 274 274
249 250 250 250 250 248 248 250 250 252 254 255 257 261 265 268 273 275 275 274 276 278 279 281 282 283 282 281 279 278 279 280 280 280 279 278 278 278 277 276 276 273 272 273
250 250 250 250 251 252 249 248 252 254 254 255 257 261 266 267 270 272 274 272 273 276 276 278 280 282 282 282 282 282 282 281 281 279 278 278 278 277 276 275 273 272 272 272
249 249 252 254 253 253 251 250 253 256 257 257 260 265 268 269 269 270 271 271 271 273 274 276 279 280 281 283 283 282 282 282 281 280 279 279 279 278 276 275 273 273 273 273
252 250 253 255 255 255 252 253 255 259 259 259 261 263 266 269 269 267 268 270 268 269 271 274 277 280 281 283 284 284 283 282 281 281 281 279 279 279 278 277 275 274 274 275
251 251 252 255 258 257 255 254 255 260 263 263 263 263 265 267 269 268 269 270 270 268 270 273 276 279 281 283 283 283 283 283 282 282 281 280 279 280 280 281 278 276 277 276
250 253 255 257 259 258 258 258 258 261 265 265 265 267 268 268 270 271 270 269 271 271 272 273 275 277 281 281 280 281 282 283 284 284 282 281 281 281 281 281 280 279 279 278
252 255 255 257 259 260 260 261 261 263 265 266 266 267 270 270 270 270 270 270 271 271 273 274 274 275 279 279 278 278 279 281 282 283 283 282 283 282 281 281 281 280 280 280
255 257 257 259 261 262 263 262 262 264 264 265 267 266 268 268 269 270 271 273 274 274 275 274 275 276 277 278 277 278 280 281 282 283 283 283 282 282 282 282 282 281 280 280
256 258 258 260 263 264 266 265 265 266 264 266 267 268 268 268 268 269 270 273 274 275 276 275 275 276 277 277 277 278 280 280 281 282 283 283 282 283 283 282 282 281 280 279
260 261 261 262 264 265 267 267 267 268 267 266 268 268 268 269 270 270 272 273 274 275 275 276 277 278 278 277 277 279 280 279 280 280 281 282 283 283 284 283 283 282 280 279
264 263 263 263 264 264 264 266 267 269 268 267 268 267 267 269 271 272 273 274 275 275 275 276 277 277 278 278 278 279 280 280 280 280 280 281 281 282 283 283 283 283 282 281
Height
5829 5831 5833 5835 5836 5837 5838 5839 5840 5840 5841 5841 5842 5843 5843 5843 5843 5844 5844 5844 5844 5844 5844 5844 5844 5843 5843 5843 5843 5842 5842 5841 5841 5840 5839 5839 5838 5838 5838 5838 5837 5837 5837 5837
5827 5829 5831 5832 5833 5834 5835 5836 5837 5838 5838 5839 5839 5840 5840 5841 5841 5841 5842 5842 5841 5841 5841 5841 5841 5841 5841 5840 5840 5840 5839 5839 5838 5837 5837 5836 5836 5836 5835 5835 5835 5834 5834 5834
5824 5827 5828 5829 5830 5831 5832 5834 5834 5835 5836 5836 5837 5837 5838 5838 5838 5838 5839 5839 5839 5839 5838 5838 5838 5838 5838 5838 5837 5837 5836 5836 5835 5835 5834 5834 5834 5833 5833 5832 5832 5831 5831 5831
5821 5823 5824 5826 5827 5829 5830 5831 5832 5832 5833 5833 5834 5834 5835 5835 5835 5835 5836 5836 5836 5836 5836 5835 5835 5835 5835 5834 5834 5834 5833 5833 5832 5831 5831 5830 5830 5830 5830 5829 5829 5829 5828 5828
5818 5819 5821 5823 5825 5826 5827 5828 5828 5829 5829 5830 5831 5831 5832 5832 5832 5832 5833 5833 5833 5833 5833 5832 5832 5831 5831 5831 5830 5830 5829 5829 5828 5827 5827 5826 5826 5826 5826 5825 5825 5825 5825 5824
5815 5816 5818 5820 5821 5822 5823 5825 5825 5825 5826 5827 5828 5828 5829 5829 5829 5829 5829 5829 5829 5830 5829 5829 5829 5828 5827 5827 5826 5826 5825 5825 5824 5823 5822 5822 5822 5822 5821 5821 5821 5821 5821 5820
5811 5812 5814 5816 5817 5818 5820 5821 5821 5821 5822 5823 5824 5823 5825 5825 5826 5826 5826 5825 5826 5826 5825 5825 5825 5824 5824 5823 5822 5822 5821 5820 5819 5819 5818 5817 5817 5817 5817 5817 5817 5816 5816 5816
5807 5809 5810 5812 5813 5814 5816 5817 5818 5819 5819 5819 5819 5819 5822 5822 5822 5822 5822 5821 5821 5821 5821 5821 5820 5820 5819 5818 5817 5817 5816 5815 5815 5814 5814 5813 5813 5813 5812 5812 5812 5812 5812 5811
5803 5805 5807 5808 5809 5810 5811 5812 5814 5815 5815 5815 5815 5816 5817 5818 5817 5818 5818 5817 5817 5817 5817 5816 5816 5815 5814 5813 5813 5812 5811 5810 5810 5809 5809 5809 5808 5808 5807 5807 5807 5807 5807 5806
5798 5800 5802 5804 5805 5806 5807 5808 5809 5810 5810 5810 5811 5812 5813 5813 5814 5814 5814 5814 5813 5813 5812 5812 5811 5810 5810 5809 5808 5806 5805 5805 5804 5804 5804 5804 5803 5803 5802 5802 5802 5801 5801 5801
5793 5796 5797 5799 5800 5801 5803 5804 5804 5805 5806 5806 5806 5810 5810 5810 5810 5810 5810 5809 5809 5808 5807 5807 5806 5805 5804 5803 5802 5801 5800 5800 5799 5799 5798 5798 5797 5797 5796 5796 5796 5796 5795 5795
5788 5790 5792 5794 5795 5796 5797 5798 5799 5801 5801 5801 5802 5807 5805 5805 5805 5805 5804 5804 5803 5803 5802 5801 5800 5799 5799 5798 5797 5795 5795 5794 5794 5793 5793 5792 5792 5791 5791 5791 5790 5790 5789 5789
5784 5785 5787 5788 5792 5792 5792 5793 5794 5795 5796 5797 5797 5802 5800 5799 5799 5799 5799 5799 5798 5798 5797 5796 5795 5794 5793 5792 5790 5789 5789 5788 5788 5787 5787 5786 5785 5785 5785 5784 5784 5784 5783 5783
5778 5780 5782 5784 5785 5786 5787 5788 5789 5790 5790 5791 5793 5794 5794 5794 5794 5793 5793 5792 5792 5792 5791 5790 5789 5788 5787 5786 5785 5784 5783 5782 5782 5781 5781 5780 5779 5779 5778 5778 5777 5777 5776 5776
5773 5775 5776 5778 5779 5780 5781 5782 5783 5784 5785 5786 5787 5788 5788 5788 5788 5788 5787 5787 5786 5786 5785 5784 5783 5782 5781 5780 5779 5778 5777 5776 5775 5775 5774 5773 5773 5772 5771 5770 5770 5769 5769 5769
5768 5770 5771 5772 5774 5775 5776 5777 5778 5779 5779 5780 5781 5782 5782 5782 5782 5781 5781 5781 5781 5780 5779 5778 5777 5777 5775 5774 5773 5772 5771 5770 5769 5768 5767 5766 5765 5765 5764 5763 5763 5762 5762 5761
5764 5765 5766 5767 5768 5769 5771 5772 5772 5773 5773 5774 5775 5777 5776 5776 5776 5775 5775 5775 5775 5774 5773 5773 5772 5771 5770 5768 5767 5766 5765 5764 5763 5761 5760 5759 5759 5758 5757 5756 5756 5755 5755 5754
5759 5760 5761 5762 5764 5765 5768 5767 5767 5767 5768 5769 5769 5770 5770 5770 5770 5770 5769 5769 5768 5768 5768 5767 5766 5765 5764 5762 5761 5760 5758 5757 5756 5755 5754 5753 5752 5751 5750 5749 5749 5748 5748 5747
5755 5756 5756 5757 5758 5759 5761 5761 5761 5762 5762 5763 5763 5763 5764 5764 5764 5764 5763 5763 5762 5762 5761 5761 5759 5758 5757 5756 5755 5753 5752 5751 5750 5749 5747 5746 5746 5745 5744 5743 5742 5741 5741 5740
5750 5751 5752 5752 5753 5754 5757 5756 5756 5757 5757 5758 5757 5757 5758 5757 5758 5759 5757 5757 5756 5755 5755 5754 5753 5752 5751 5750 5748 5747 5746 5745 5744 5742 5741 5740 5739 5738 5737 5735 5734 5734 5733 5732
5746 5746 5747 5747 5747 5749 5750 5750 5751 5752 5753 5752 5751 5751 5751 5751 5751 5751 5751 5750 5749 5749 5748 5747 5746 5746 5745 5743 5742 5741 5740 5739 5738 5736 5735 5733 5732 5731 5730 5728 5727 5726 5725 5724
5740 5741 5741 5742 5742 5745 5744 5744 5745 5745 5745 5744 5744 5744 5744 5744 5744 5744 5744 5743 5743 5742 5741 5740 5740 5739 5738 5736 5735 5734 5733 5732 5731 5729 5728 5726 5725 5723 5722 5721 5719 5718 5717 5716
5735 5736 5736 5737 5739 5738 5737 5737 5737 5737 5738 5738 5737 5737 5738 5737 5737 5737 5737 5736 5735 5735 5734 5733 5732 5731 5730 5729 5728 5727 5726 5724 5723 5722 5720 5719 5717 5716 5714 5713 5711 5710 5708 5707
5728 5728 5729 5730 5731 5730 5730 5730 5730 5730 5730 5730 5730 5730 5730 5730 5730 5729 5729 5729 5728 5727 5726 5725 5725 5724 5723 5722 5720 5719 5718 5717 5715 5714 5712 5711 5709 5708 5706 5704 5703 5702 5700 5699
5722 5722 5722 5723 5723 5723 5723 5723 5723 5722 5722 5722 5722 5722 5722 5722 5722 5721 5721 5720 5720 5719 5718 5717 5716 5715 5715 5713 5712 5710 5709 5708 5707 5705 5704 5703 5701 5699 5698 5696 5694 5693 5691 5690
5716 5716 5716 5716 5716 5716 5716 5716 5716 5715 5715 5714 5714 5714 5713 5713 5713 5713 5712 5711 5710 5710 5709 5708 5707 5706 5705 5704 5703 5702 5700 5699 5698 5696 5695 5694 5692 5691 5689 5687 5685 5683 5682 5680